Date String (YYYY-MM-DD hh:mm:ss) UTC,Instrument flags,absolute air pressure of the measurement (hPa),sample flow rate (lpm),inlet stack bypass flow (lpm),air temperature of the measurement (°C),ambient temperature measured by the external sensor (°C),aerosol sample conditioner tube jacket temperature (°C),OPC LED temperature (°C),internal box temperature (°C),relative humidity of the measurement (%),span deviation,mass concentration of particles derived from Lorenz-Mie calculation of OPC scattering (μg/m³),mass concentration of particles derived from Lorenz-Mie calculation of OPC scattering (μg/m³),mass concentration of particles derived from Lorenz-Mie calculation of OPC scattering (μg/m³)
DateTimeUTC,F1_M11,P_M11,Q1_M11,Q2_M11,T1_M11,T2_M11,T3_M11,T4_M11,T5_M11,U1_M11,ZSPAN_M11,X0_M11,X2_M11,X1_M11
2024-05-29 09:00:00,SystemResetWarning,0832.6,5.00,000.00,030.2,029.4,000.0,038.6,032.0,023.1,0000.0,0016.53,0005.64,0004.09
2024-05-29 09:01:00,SystemResetWarning,0832.7,5.00,000.00,030.2,029.4,000.0,038.7,032.0,023.1,0000.0,0016.77,0005.65,0004.11
2024-05-29 09:02:00,SystemResetWarning,0832.6,5.00,000.00,030.2,029.4,000.0,038.6,032.0,023.2,0000.0,0016.78,0005.66,0004.12
2024-05-29 09:03:00,SystemResetWarning,0832.7,5.01,000.00,030.2,029.4,000.0,038.6,032.0,023.2,0000.0,0015.76,0005.69,0004.12
2024-05-29 09:04:00,SystemResetWarning,0832.6,4.99,000.00,030.2,029.4,000.0,038.6,031.9,023.3,0000.0,0015.64,0005.65,0004.13
2024-05-29 09:05:00,SystemResetWarning,0832.6,5.00,000.00,030.2,029.4,000.0,038.6,032.0,023.3,0000.0,0015.44,0005.59,0004.14
2024-05-29 09:06:00,SystemResetWarning,0832.6,5.01,000.00,030.2,029.4,000.0,038.6,031.9,023.3,0000.0,0014.81,0005.63,0004.15
2024-05-29 09:07:00,SystemResetWarning,0832.7,5.01,000.00,030.2,029.3,000.0,038.6,031.9,023.3,0000.0,0015.31,0005.59,0004.16
2024-05-29 09:08:00,SystemResetWarning,0832.6,5.00,000.00,030.2,029.3,000.0,038.6,031.9,023.3,0000.0,0015.61,0005.60,0004.18
2024-05-29 09:09:00,SystemResetWarning,0832.6,5.00,000.00,030.2,029.3,000.0,038.6,032.0,023.3,0000.0,0015.31,0005.59,0004.19
2024-05-29 09:10:00,SystemResetWarning,0832.6,5.00,000.00,030.2,029.3,000.0,038.6,032.0,023.3,0000.0,0014.59,0005.54,0004.19
2024-05-29 09:11:00,SystemResetWarning,0832.6,5.00,000.00,030.2,029.3,000.0,038.6,031.9,023.3,0000.0,0014.44,0005.51,0004.20
2024-05-29 09:12:00,SystemResetWarning,0832.5,5.01,000.00,030.2,029.3,000.0,038.7,031.9,023.3,0000.0,0014.73,0005.43,0004.19
2024-05-29 09:13:00,SystemResetWarning,0832.5,5.00,000.00,030.2,029.3,000.0,038.7,031.9,023.4,0000.0,0015.18,0005.43,0004.17
2024-05-29 09:14:00,SystemResetWarning,0832.5,5.00,000.00,030.2,029.3,000.0,038.7,031.9,023.4,0000.0,0015.60,0005.43,0004.18
2024-05-29 09:15:00,SystemResetWarning,0832.5,5.00,000.00,030.1,029.2,000.0,038.7,031.9,023.4,0000.0,0015.57,0005.42,0004.18
2024-05-29 09:16:00,SystemResetWarning,0832.6,5.00,000.00,030.1,029.2,000.0,038.6,031.9,023.5,0000.0,0014.66,0005.44,0004.18
2024-05-29 09:17:00,SystemResetWarning,0832.6,5.00,000.00,030.1,029.2,000.0,038.6,031.9,023.6,0000.0,0014.18,0005.43,0004.18
2024-05-29 09:18:00,SystemResetWarning,0832.5,5.01,000.00,030.1,029.2,000.0,038.6,031.9,023.7,0000.0,0013.67,0005.48,0004.19
2024-05-29 09:19:00,SystemResetWarning,0832.5,5.01,000.00,030.1,029.2,000.0,038.6,031.8,023.7,0000.0,0013.50,0005.47,0004.19
2024-05-29 09:20:00,SystemResetWarning,0832.5,4.99,000.00,030.1,029.2,000.0,038.6,031.9,023.8,0000.0,0014.41,0005.52,0004.17
2024-05-29 09:21:00,SystemResetWarning,0832.6,4.99,000.00,030.1,029.2,000.0,038.6,031.9,023.8,0000.0,0014.50,0005.61,0004.17
2024-05-29 09:22:00,SystemResetWarning,0832.6,5.01,000.00,030.1,029.2,000.0,038.6,031.9,023.5,0000.0,0014.29,0005.63,0004.16
2024-05-29 09:23:00,SystemResetWarning,0832.7,5.01,000.00,030.1,029.2,000.0,038.6,031.9,023.3,0000.0,0014.03,0005.66,0004.16
2024-05-29 09:24:00,SystemResetWarning,0832.6,5.00,000.00,030.1,029.2,000.0,038.6,031.9,023.1,0000.0,0014.25,0005.65,0004.17
2024-05-29 09:25:00,SystemResetWarning,0832.6,4.99,000.00,030.1,029.2,000.0,038.6,031.8,022.8,0000.0,0014.74,0005.63,0004.16
2024-05-29 09:26:00,SystemResetWarning,0832.6,4.99,000.00,030.1,029.2,000.0,038.6,031.8,022.7,0000.0,0015.06,0005.61,0004.14
2024-05-29 09:27:00,SystemResetWarning,0832.6,5.00,000.00,030.1,029.2,000.0,038.6,031.8,022.8,0000.0,0015.00,0005.57,0004.12
2024-05-29 09:28:00,SystemResetWarning,0832.5,5.00,000.00,030.1,029.2,000.0,038.6,031.8,022.9,0000.0,0014.98,0005.55,0004.09
2024-05-29 09:29:00,SystemResetWarning,0832.5,5.01,000.00,030.0,029.2,000.0,038.6,031.8,022.9,0000.0,0015.07,0005.50,0004.06
2024-05-29 09:30:00,SystemResetWarning,0832.5,5.01,000.00,030.0,029.2,000.0,038.6,031.8,022.9,0000.0,0014.93,0005.52,0004.04
2024-05-29 09:31:00,SystemResetWarning,0832.5,5.00,000.00,030.0,029.1,000.0,038.5,031.8,022.9,0000.0,0014.56,0005.50,0004.05
2024-05-29 09:32:00,SystemResetWarning,0832.4,5.00,000.00,030.0,029.1,000.0,038.5,031.8,022.8,0000.0,0015.37,0005.43,0004.03
2024-05-29 09:33:00,SystemResetWarning,0832.4,5.01,000.00,030.0,029.1,000.0,038.5,031.8,022.9,0000.0,0015.57,0005.43,0004.02
2024-05-29 09:34:00,SystemResetWarning,0832.4,5.00,000.00,030.0,029.1,000.0,038.5,031.7,022.9,0000.0,0015.40,0005.42,0003.99
2024-05-29 09:35:00,SystemResetWarning,0832.4,5.00,000.00,030.0,029.0,000.0,038.5,031.7,023.0,0000.0,0014.64,0005.37,0003.98
2024-05-29 09:36:00,SystemResetWarning,0832.4,5.00,000.00,029.9,029.0,000.0,038.5,031.7,023.1,0000.0,0013.70,0005.35,0003.97
2024-05-29 09:37:00,SystemResetWarning,0832.4,4.99,000.00,029.9,029.0,000.0,038.5,031.6,023.3,0000.0,0014.47,0005.37,0003.99
2024-05-29 09:38:00,SystemResetWarning,0832.4,5.00,000.00,029.9,028.9,000.0,038.5,031.6,023.6,0000.0,0014.93,0005.46,0004.01
2024-05-29 09:39:00,SystemResetWarning,0832.4,5.00,000.00,029.9,028.9,000.0,038.5,031.6,023.7,0000.0,0015.46,0005.45,0004.03
2024-05-29 09:40:00,SystemResetWarning,0832.4,5.00,000.00,029.9,028.9,000.0,038.5,031.6,023.8,0000.0,0015.44,0005.50,0004.04
2024-05-29 09:41:00,SystemResetWarning,0832.4,5.01,000.00,029.9,029.0,000.0,038.4,031.6,023.8,0000.0,0016.24,0005.43,0004.04
2024-05-29 09:42:00,SystemResetWarning,0832.4,5.01,000.00,029.9,029.0,000.0,038.4,031.7,023.8,0000.0,0017.49,0005.46,0004.05
2024-05-29 09:43:00,SystemResetWarning,0832.3,5.00,000.00,029.9,029.0,000.0,038.4,031.7,023.8,0000.0,0017.35,0005.51,0004.07
2024-05-29 09:44:00,SystemResetWarning,0832.3,5.00,000.00,029.9,029.0,000.0,038.4,031.7,023.8,0000.0,0017.55,0005.45,0004.08
2024-05-29 09:45:00,SystemResetWarning,0832.3,4.99,000.00,029.9,029.0,000.0,038.4,031.7,023.8,0000.0,0018.02,0005.50,0004.11
2024-05-29 09:46:00,SystemResetWarning,0832.3,5.00,000.00,029.9,029.0,000.0,038.4,031.7,023.7,0000.0,0018.58,0005.63,0004.14
2024-05-29 09:47:00,SystemResetWarning,0832.3,5.01,000.00,029.9,029.0,000.0,038.4,031.7,023.7,0000.0,0019.05,0005.64,0004.14
2024-05-29 09:48:00,SystemResetWarning,0832.3,5.01,000.00,029.9,029.0,000.0,038.4,031.7,023.7,0000.0,0018.29,0005.67,0004.15
2024-05-29 09:49:00,SystemResetWarning,0832.3,5.00,000.00,029.9,029.0,000.0,038.4,031.6,023.8,0000.0,0019.25,0005.69,0004.15
2024-05-29 09:50:00,SystemResetWarning,0832.3,4.99,000.00,029.9,029.0,000.0,038.4,031.6,023.8,0000.0,0018.97,0005.69,0004.16
2024-05-29 09:51:00,SystemResetWarning,0832.2,4.99,000.00,029.8,029.0,000.0,038.4,031.6,024.0,0000.0,0018.79,0005.67,0004.18
2024-05-29 09:52:00,SystemResetWarning,0832.2,5.02,000.00,029.8,028.9,000.0,038.4,031.6,024.0,0000.0,0018.71,0005.77,0004.20
2024-05-29 09:53:00,SystemResetWarning,0832.3,5.00,000.00,029.8,028.9,000.0,038.4,031.6,024.0,0000.0,0017.79,0005.72,0004.21
2024-05-29 09:54:00,SystemResetWarning,0832.3,5.00,000.00,029.8,028.9,000.0,038.4,031.6,024.0,0000.0,0017.84,0005.70,0004.22
2024-05-29 09:55:00,SystemResetWarning,0832.3,4.99,000.00,029.8,028.9,000.0,038.4,031.6,024.0,0000.0,0017.50,0005.80,0004.24
2024-05-29 09:56:00,SystemResetWarning,0832.3,5.00,000.00,029.8,028.9,000.0,038.4,031.6,024.1,0000.0,0017.24,0005.83,0004.25
2024-05-29 09:57:00,SystemResetWarning,0832.2,5.01,000.00,029.8,028.9,000.0,038.4,031.5,024.3,0000.0,0017.44,0005.85,0004.25
2024-05-29 09:58:00,SystemResetWarning,0832.3,5.01,000.00,029.8,028.9,000.0,038.4,031.5,024.4,0000.0,0017.15,0005.91,0004.29
2024-05-29 09:59:00,SystemResetWarning,0832.2,5.00,000.00,029.8,028.8,000.0,038.3,031.5,024.6,0000.0,0018.51,0005.98,0004.34
